PAL317 RPLL-RPMR

Flight info

Callsign PAL317
Flight time 1h 27m
Altitude 37000
Route VERDE2P VERDE A461 SAJ W3 IOO B472 COT W19 MELBY MELBY3P
Aircraft B77W/H-SDE1E2E3FGHIJ2J3J4J5M1RWXY/LB1D1

Departure

Time 2026-04-19 23:58
Airport Ninoy Aquino International Airport (RPLL)

Arrival

Time 2026-04-20 01:25
Airport General Santos International Airport (RPMR)
Time Latitude Longitude Altitude Speed Heading
2026-04-19 23:22 14.50365 121.00371 44 ft 0 kts 51°
2026-04-19 23:44 14.50364 121.00370 45 ft 0 kts 51°
2026-04-19 23:45 14.50363 121.00369 45 ft 2 kts 51°
2026-04-19 23:45 14.50352 121.00354 42 ft 3 kts 51°
2026-04-19 23:45 14.50340 121.00339 40 ft 3 kts 51°
2026-04-19 23:45 14.50328 121.00323 41 ft 2 kts 39°
2026-04-19 23:46 14.50326 121.00321 41 ft 0 kts 30°
2026-04-19 23:50 14.50326 121.00322 41 ft 1 kts 31°
2026-04-19 23:50 14.50330 121.00329 42 ft 1 kts 65°
2026-04-19 23:51 14.50328 121.00338 43 ft 1 kts 105°
2026-04-19 23:51 14.50317 121.00345 44 ft 3 kts 160°
2026-04-19 23:51 14.50288 121.00339 44 ft 5 kts 193°
2026-04-19 23:51 14.50228 121.00324 44 ft 11 kts 191°
2026-04-19 23:52 14.50162 121.00348 43 ft 11 kts 128°
2026-04-19 23:52 14.50170 121.00424 43 ft 11 kts 66°
2026-04-19 23:52 14.50210 121.00498 43 ft 13 kts 59°
2026-04-19 23:52 14.50268 121.00601 45 ft 23 kts 59°
2026-04-19 23:53 14.50351 121.00751 46 ft 24 kts 62°
2026-04-19 23:53 14.50436 121.00901 48 ft 24 kts 59°
2026-04-19 23:53 14.50519 121.01054 50 ft 24 kts 60°
2026-04-19 23:53 14.50608 121.01213 48 ft 26 kts 60°
2026-04-19 23:54 14.50698 121.01374 49 ft 26 kts 60°
2026-04-19 23:54 14.50787 121.01532 47 ft 26 kts 60°
2026-04-19 23:54 14.50875 121.01692 53 ft 26 kts 60°
2026-04-19 23:54 14.50963 121.01854 55 ft 26 kts 60°
2026-04-19 23:55 14.51053 121.02014 57 ft 26 kts 61°
2026-04-19 23:55 14.51142 121.02175 52 ft 26 kts 60°
2026-04-19 23:55 14.51231 121.02335 53 ft 26 kts 60°
2026-04-19 23:55 14.51321 121.02496 54 ft 26 kts 60°
2026-04-19 23:56 14.51411 121.02656 62 ft 26 kts 60°
2026-04-19 23:56 14.51486 121.02792 57 ft 13 kts 65°
2026-04-19 23:56 14.51474 121.02853 57 ft 8 kts 141°
2026-04-19 23:56 14.51421 121.02880 61 ft 9 kts 171°
2026-04-19 23:57 14.51363 121.02854 55 ft 10 kts 231°
2026-04-19 23:57 14.51325 121.02788 55 ft 11 kts 241°
2026-04-19 23:57 14.51273 121.02693 54 ft 28 kts 240°
2026-04-19 23:57 14.51093 121.02370 57 ft 97 kts 240°
2026-04-19 23:58 14.50536 121.01383 220 ft 207 kts 238°
2026-04-19 23:58 14.49795 121.00112 1972 ft 201 kts 238°
2026-04-19 23:58 14.49078 120.98825 2870 ft 234 kts 240°
2026-04-19 23:58 14.48234 120.97271 3505 ft 257 kts 240°
2026-04-19 23:59 14.47331 120.95630 4505 ft 268 kts 240°
2026-04-19 23:59 14.46386 120.93933 5602 ft 275 kts 239°
2026-04-19 23:59 14.45417 120.92205 6722 ft 280 kts 239°
2026-04-19 23:59 14.44422 120.90460 7771 ft 283 kts 235°
2026-04-20 00:00 14.43003 120.89030 8634 ft 292 kts 208°
2026-04-20 00:00 14.41071 120.88424 9627 ft 293 kts 182°
2026-04-20 00:00 14.39024 120.88551 10481 ft 300 kts 171°
2026-04-20 00:00 14.36873 120.88894 10969 ft 326 kts 169°
2026-04-20 00:01 14.34529 120.89305 11054 ft 364 kts 169°
2026-04-20 00:01 14.31970 120.89758 11748 ft 379 kts 169°
2026-04-20 00:01 14.26660 120.90671 13677 ft 392 kts 169°
2026-04-20 00:02 14.23972 120.91122 14538 ft 399 kts 170°
2026-04-20 00:02 14.21219 120.91580 14973 ft 402 kts 170°
2026-04-20 00:02 14.18446 120.92037 14970 ft 404 kts 170°
2026-04-20 00:02 14.15653 120.92495 15182 ft 409 kts 169°
2026-04-20 00:03 14.12832 120.92964 16355 ft 412 kts 170°
2026-04-20 00:03 14.09981 120.93433 17687 ft 416 kts 170°
2026-04-20 00:03 14.07105 120.93906 18807 ft 423 kts 170°
2026-04-20 00:03 14.04166 120.94388 19784 ft 430 kts 170°
2026-04-20 00:04 14.01191 120.94877 20774 ft 436 kts 170°
2026-04-20 00:04 13.98181 120.95372 21819 ft 441 kts 171°
2026-04-20 00:04 13.95128 120.95870 22801 ft 446 kts 171°
2026-04-20 00:04 13.92040 120.96373 23672 ft 452 kts 171°
2026-04-20 00:05 13.88963 120.96874 24400 ft 457 kts 171°
2026-04-20 00:05 13.85795 120.97391 25103 ft 462 kts 171°
2026-04-20 00:05 13.82601 120.97912 25803 ft 467 kts 171°
2026-04-20 00:05 13.79379 120.98438 26493 ft 470 kts 171°
2026-04-20 00:06 13.76138 120.98966 27092 ft 473 kts 172°
2026-04-20 00:06 13.72874 120.99498 27569 ft 477 kts 172°
2026-04-20 00:06 13.69572 121.00036 28013 ft 482 kts 172°
2026-04-20 00:06 13.66245 121.00578 28465 ft 486 kts 172°
2026-04-20 00:07 13.62898 121.01124 28943 ft 488 kts 172°
2026-04-20 00:07 13.59533 121.01672 29408 ft 491 kts 172°
2026-04-20 00:07 13.56153 121.02223 29839 ft 494 kts 172°
2026-04-20 00:07 13.52743 121.02778 30218 ft 497 kts 172°
2026-04-20 00:08 13.49310 121.03292 30571 ft 497 kts 175°
2026-04-20 00:08 13.45869 121.03473 31115 ft 492 kts 181°
2026-04-20 00:08 13.42473 121.03445 31837 ft 484 kts 182°
2026-04-20 00:08 13.39170 121.03374 32590 ft 476 kts 182°
2026-04-20 00:09 13.35870 121.03332 33307 ft 471 kts 182°
2026-04-20 00:09 13.32606 121.03334 33917 ft 467 kts 181°
2026-04-20 00:09 13.29353 121.03366 34422 ft 464 kts 181°
2026-04-20 00:09 13.26126 121.03403 34868 ft 463 kts 181°
2026-04-20 00:10 13.22907 121.03439 35252 ft 463 kts 181°
2026-04-20 00:10 13.19721 121.03472 35566 ft 464 kts 181°
2026-04-20 00:10 13.16486 121.03504 35848 ft 465 kts 181°
2026-04-20 00:10 13.13261 121.03536 36299 ft 462 kts 181°
2026-04-20 00:11 13.10051 121.03569 36773 ft 459 kts 181°
2026-04-20 00:11 13.06856 121.03602 37022 ft 462 kts 181°
2026-04-20 00:11 13.03624 121.03633 36998 ft 464 kts 181°
2026-04-20 00:12 12.97186 121.03697 37004 ft 460 kts 181°
2026-04-20 00:12 12.90804 121.03762 37000 ft 458 kts 181°
2026-04-20 00:13 12.84471 121.03824 36981 ft 457 kts 181°
2026-04-20 00:13 12.78082 121.03888 36994 ft 456 kts 181°
2026-04-20 00:14 12.71771 121.03951 36989 ft 457 kts 181°
2026-04-20 00:14 12.65392 121.04015 36988 ft 458 kts 181°
2026-04-20 00:15 12.59003 121.04079 36985 ft 459 kts 181°
2026-04-20 00:15 12.52610 121.04142 36981 ft 459 kts 181°
2026-04-20 00:16 12.46211 121.04206 36977 ft 459 kts 181°
2026-04-20 00:16 12.39866 121.04391 36969 ft 459 kts 172°
2026-04-20 00:16 12.36776 121.05236 36970 ft 462 kts 161°
2026-04-20 00:17 12.33867 121.06657 36974 ft 466 kts 152°
2026-04-20 00:17 12.31245 121.08633 36968 ft 469 kts 141°
2026-04-20 00:17 12.28852 121.10917 36983 ft 470 kts 140°
2026-04-20 00:18 12.24134 121.15570 36978 ft 472 kts 139°
2026-04-20 00:18 12.19382 121.20215 36974 ft 473 kts 140°
2026-04-20 00:19 12.14575 121.24839 36972 ft 474 kts 140°
2026-04-20 00:19 12.09782 121.29416 36975 ft 474 kts 140°
2026-04-20 00:20 12.04947 121.34029 36971 ft 475 kts 140°
2026-04-20 00:20 12.00108 121.38646 36979 ft 475 kts 140°
2026-04-20 00:21 11.95286 121.43246 36962 ft 475 kts 140°
2026-04-20 00:21 11.90459 121.47849 36972 ft 474 kts 140°
2026-04-20 00:22 11.85637 121.52445 36966 ft 474 kts 140°
2026-04-20 00:22 11.80841 121.57013 36972 ft 474 kts 140°
2026-04-20 00:23 11.76023 121.61601 36969 ft 474 kts 140°
2026-04-20 00:23 11.71195 121.66194 36973 ft 474 kts 140°
2026-04-20 00:24 11.66389 121.70766 36971 ft 474 kts 140°
2026-04-20 00:24 11.61567 121.75349 36970 ft 474 kts 140°
2026-04-20 00:25 11.56738 121.79938 36969 ft 474 kts 140°
2026-04-20 00:25 11.51902 121.84531 36967 ft 475 kts 140°
2026-04-20 00:26 11.47060 121.89127 36981 ft 475 kts 140°
2026-04-20 00:26 11.42244 121.93696 36978 ft 476 kts 140°
2026-04-20 00:27 11.37396 121.98294 36984 ft 476 kts 140°
2026-04-20 00:27 11.32664 122.02780 36983 ft 476 kts 140°
2026-04-20 00:28 11.27814 122.07375 36986 ft 476 kts 140°
2026-04-20 00:28 11.22961 122.11970 36984 ft 476 kts 140°
2026-04-20 00:29 11.18101 122.16571 36993 ft 477 kts 140°
2026-04-20 00:29 11.13229 122.21181 36992 ft 477 kts 139°
2026-04-20 00:30 11.08403 122.25747 36998 ft 477 kts 139°
2026-04-20 00:30 11.03534 122.30346 36998 ft 477 kts 140°
2026-04-20 00:31 10.98663 122.34943 36996 ft 477 kts 139°
2026-04-20 00:31 10.93792 122.39539 36987 ft 476 kts 139°
2026-04-20 00:32 10.88960 122.44097 36989 ft 476 kts 140°
2026-04-20 00:32 10.83905 122.48446 36990 ft 473 kts 147°
2026-04-20 00:33 10.78260 122.51807 36980 ft 470 kts 156°
2026-04-20 00:33 10.72349 122.54570 36984 ft 470 kts 157°
2026-04-20 00:34 10.66395 122.57331 36977 ft 470 kts 157°
2026-04-20 00:34 10.60451 122.60127 36979 ft 470 kts 156°
2026-04-20 00:35 10.54514 122.62937 36975 ft 471 kts 156°
2026-04-20 00:35 10.49578 122.65272 36982 ft 471 kts 156°
2026-04-20 00:36 10.42665 122.68539 36978 ft 471 kts 156°
2026-04-20 00:36 10.37681 122.70893 36978 ft 471 kts 156°
2026-04-20 00:37 10.31734 122.73698 36982 ft 471 kts 156°
2026-04-20 00:37 10.25826 122.76484 36984 ft 471 kts 156°
2026-04-20 00:38 10.19877 122.79290 36986 ft 471 kts 156°
2026-04-20 00:38 10.13932 122.82091 36981 ft 471 kts 156°
2026-04-20 00:39 10.07985 122.84890 36994 ft 471 kts 156°
2026-04-20 00:39 10.02033 122.87691 36995 ft 471 kts 156°
2026-04-20 00:40 9.96087 122.90488 36988 ft 472 kts 156°
2026-04-20 00:40 9.90126 122.93293 36997 ft 472 kts 156°
2026-04-20 00:41 9.84155 122.96102 36989 ft 473 kts 156°
2026-04-20 00:41 9.78183 122.98909 36990 ft 473 kts 156°
2026-04-20 00:42 9.72405 123.01623 36985 ft 473 kts 156°
2026-04-20 00:42 9.66427 123.04432 36993 ft 474 kts 156°
2026-04-20 00:43 9.60441 123.07244 36990 ft 474 kts 156°
2026-04-20 00:43 9.54463 123.10053 36978 ft 473 kts 156°
2026-04-20 00:44 9.48477 123.12863 36967 ft 473 kts 156°
2026-04-20 00:44 9.42541 123.15649 36965 ft 473 kts 156°
2026-04-20 00:45 9.36550 123.18458 36963 ft 474 kts 155°
2026-04-20 00:45 9.30552 123.21272 36974 ft 476 kts 155°
2026-04-20 00:46 9.24537 123.24092 36960 ft 477 kts 155°
2026-04-20 00:46 9.18504 123.26920 36966 ft 478 kts 155°
2026-04-20 00:47 9.12492 123.29736 36977 ft 479 kts 155°
2026-04-20 00:47 9.06439 123.32569 36978 ft 479 kts 155°
2026-04-20 00:48 9.00380 123.35404 36977 ft 479 kts 155°
2026-04-20 00:48 8.94350 123.38226 36973 ft 479 kts 155°
2026-04-20 00:49 8.88330 123.41042 36975 ft 479 kts 155°
2026-04-20 00:49 8.82287 123.43868 36971 ft 478 kts 156°
2026-04-20 00:50 8.76238 123.46695 36972 ft 477 kts 156°
2026-04-20 00:50 8.70217 123.49509 36980 ft 476 kts 156°
2026-04-20 00:51 8.64201 123.52320 36972 ft 476 kts 156°
2026-04-20 00:51 8.58182 123.55131 36987 ft 477 kts 156°
2026-04-20 00:52 8.52183 123.57931 36984 ft 477 kts 156°
2026-04-20 00:52 8.46143 123.60749 36991 ft 478 kts 155°
2026-04-20 00:53 8.40094 123.63571 36993 ft 479 kts 156°
2026-04-20 00:53 8.34028 123.66399 36983 ft 479 kts 156°
2026-04-20 00:54 8.27972 123.69221 36993 ft 479 kts 156°
2026-04-20 00:54 8.21912 123.72048 36987 ft 480 kts 155°
2026-04-20 00:55 8.15878 123.74859 36989 ft 480 kts 155°
2026-04-20 00:55 8.09790 123.77693 36995 ft 481 kts 155°
2026-04-20 00:56 8.03704 123.80526 36985 ft 481 kts 155°
2026-04-20 00:56 7.97676 123.83332 36984 ft 480 kts 155°
2026-04-20 00:57 7.91603 123.86157 36984 ft 480 kts 155°
2026-04-20 00:57 7.85535 123.88979 36980 ft 480 kts 155°
2026-04-20 00:58 7.79468 123.91800 36985 ft 481 kts 155°
2026-04-20 00:58 7.73382 123.94629 36986 ft 482 kts 155°
2026-04-20 00:59 7.67282 123.97462 36973 ft 483 kts 154°
2026-04-20 00:59 7.61353 124.00218 36980 ft 484 kts 154°
2026-04-20 01:00 7.55213 124.03068 36983 ft 485 kts 154°
2026-04-20 01:00 7.49077 124.05917 36980 ft 486 kts 154°
2026-04-20 01:01 7.42920 124.08775 36980 ft 486 kts 154°
2026-04-20 01:01 7.36772 124.11627 36972 ft 486 kts 154°
2026-04-20 01:02 7.30661 124.14462 36856 ft 488 kts 154°
2026-04-20 01:02 7.27547 124.15906 36203 ft 494 kts 154°
2026-04-20 01:02 7.24424 124.17355 35482 ft 493 kts 155°
2026-04-20 01:02 7.21301 124.18802 34659 ft 494 kts 155°
2026-04-20 01:03 7.18221 124.20337 33962 ft 492 kts 150°
2026-04-20 01:03 7.15298 124.22122 33310 ft 487 kts 145°
2026-04-20 01:03 7.12601 124.24151 32694 ft 481 kts 140°
2026-04-20 01:03 7.10049 124.26243 32131 ft 477 kts 140°
2026-04-20 01:04 7.07495 124.28351 31552 ft 472 kts 140°
2026-04-20 01:04 7.04963 124.30436 30984 ft 469 kts 140°
2026-04-20 01:04 7.02429 124.32511 30414 ft 465 kts 140°
2026-04-20 01:04 6.99920 124.34554 29816 ft 462 kts 140°
2026-04-20 01:05 6.97450 124.36560 29187 ft 459 kts 141°
2026-04-20 01:05 6.94972 124.38568 28595 ft 454 kts 141°
2026-04-20 01:05 6.92519 124.40554 28024 ft 450 kts 141°
2026-04-20 01:05 6.90087 124.42523 27446 ft 446 kts 141°
2026-04-20 01:06 6.87665 124.44484 26906 ft 443 kts 141°
2026-04-20 01:06 6.85270 124.46424 26357 ft 439 kts 141°
2026-04-20 01:06 6.82897 124.48345 25813 ft 436 kts 142°
2026-04-20 01:06 6.80542 124.50253 25245 ft 434 kts 142°
2026-04-20 01:07 6.78248 124.52111 24717 ft 421 kts 142°
2026-04-20 01:07 6.76001 124.53931 24202 ft 412 kts 142°
2026-04-20 01:07 6.73771 124.55735 23689 ft 412 kts 142°
2026-04-20 01:07 6.71539 124.57542 23103 ft 411 kts 143°
2026-04-20 01:08 6.69313 124.59342 22560 ft 409 kts 142°
2026-04-20 01:08 6.67097 124.61135 22040 ft 407 kts 142°
2026-04-20 01:08 6.64875 124.62887 21525 ft 404 kts 144°
2026-04-20 01:08 6.62635 124.64585 21027 ft 402 kts 144°
2026-04-20 01:09 6.60396 124.66264 20523 ft 400 kts 144°
2026-04-20 01:09 6.58172 124.67931 20034 ft 398 kts 144°
2026-04-20 01:09 6.55960 124.69595 19526 ft 397 kts 144°
2026-04-20 01:09 6.53746 124.71267 19021 ft 396 kts 144°
2026-04-20 01:10 6.51546 124.72932 18514 ft 396 kts 144°
2026-04-20 01:10 6.47237 124.76201 17428 ft 377 kts 144°
2026-04-20 01:10 6.45197 124.77750 16924 ft 358 kts 144°
2026-04-20 01:11 6.43235 124.79237 16476 ft 351 kts 144°
2026-04-20 01:11 6.41259 124.80727 16035 ft 359 kts 145°
2026-04-20 01:11 6.39231 124.82274 15550 ft 375 kts 142°
2026-04-20 01:11 6.37453 124.84238 15033 ft 383 kts 127°
2026-04-20 01:12 6.35996 124.86424 14583 ft 373 kts 125°
2026-04-20 01:12 6.34545 124.88593 14116 ft 372 kts 126°
2026-04-20 01:12 6.33082 124.90729 13615 ft 371 kts 127°
2026-04-20 01:12 6.31600 124.92865 13093 ft 370 kts 127°
2026-04-20 01:13 6.30123 124.94938 12589 ft 368 kts 129°
2026-04-20 01:13 6.28494 124.96946 12108 ft 364 kts 131°
2026-04-20 01:13 6.26867 124.98845 11645 ft 362 kts 132°
2026-04-20 01:13 6.25305 125.00654 11206 ft 355 kts 132°
2026-04-20 01:14 6.23736 125.02486 10744 ft 334 kts 131°
2026-04-20 01:14 6.22287 125.04193 10435 ft 308 kts 131°
2026-04-20 01:14 6.20962 125.05762 10255 ft 281 kts 131°
2026-04-20 01:14 6.19741 125.07211 10142 ft 266 kts 131°
2026-04-20 01:15 6.18531 125.08648 10060 ft 276 kts 131°
2026-04-20 01:15 6.17248 125.10170 9787 ft 295 kts 131°
2026-04-20 01:15 6.15910 125.11760 9422 ft 297 kts 131°
2026-04-20 01:15 6.14608 125.13310 9055 ft 281 kts 130°
2026-04-20 01:16 6.13382 125.14770 8729 ft 267 kts 130°
2026-04-20 01:16 6.12188 125.16190 8452 ft 267 kts 130°
2026-04-20 01:16 6.10969 125.17589 8118 ft 270 kts 139°
2026-04-20 01:16 6.09310 125.18481 7796 ft 276 kts 168°
2026-04-20 01:17 6.07399 125.18745 7477 ft 281 kts 174°
2026-04-20 01:17 6.05440 125.18968 7115 ft 284 kts 174°
2026-04-20 01:17 6.03524 125.19191 6781 ft 270 kts 173°
2026-04-20 01:17 6.01683 125.19407 6483 ft 263 kts 173°
2026-04-20 01:18 5.99909 125.19619 6234 ft 251 kts 173°
2026-04-20 01:18 5.98207 125.19825 5936 ft 242 kts 173°
2026-04-20 01:18 5.96567 125.20025 5659 ft 232 kts 173°
2026-04-20 01:18 5.94997 125.20216 5396 ft 224 kts 173°
2026-04-20 01:19 5.93455 125.20404 5167 ft 224 kts 173°
2026-04-20 01:19 5.91890 125.20596 4932 ft 228 kts 173°
2026-04-20 01:19 5.90336 125.20703 4675 ft 220 kts 187°
2026-04-20 01:19 5.88996 125.20099 4410 ft 213 kts 223°
2026-04-20 01:20 5.88178 125.18886 4262 ft 208 kts 250°
2026-04-20 01:20 5.87873 125.17488 4161 ft 204 kts 264°
2026-04-20 01:20 5.87708 125.16086 4045 ft 201 kts 265°
2026-04-20 01:20 5.87551 125.14702 3955 ft 198 kts 265°
2026-04-20 01:21 5.87509 125.13336 3850 ft 193 kts 285°
2026-04-20 01:21 5.88165 125.12202 3785 ft 190 kts 320°
2026-04-20 01:21 5.89328 125.11623 3587 ft 192 kts 351°
2026-04-20 01:21 5.90649 125.11466 3385 ft 191 kts 354°
2026-04-20 01:22 5.91964 125.11306 3107 ft 188 kts 353°
2026-04-20 01:22 5.93194 125.11156 3067 ft 168 kts 354°
2026-04-20 01:22 5.94362 125.11023 2682 ft 169 kts 355°
2026-04-20 01:22 5.95516 125.10886 2293 ft 162 kts 353°
2026-04-20 01:23 5.96579 125.10745 2011 ft 145 kts 354°
2026-04-20 01:23 5.97557 125.10619 1804 ft 143 kts 353°
2026-04-20 01:23 5.98217 125.10544 1757 ft 143 kts 354°
2026-04-20 01:23 5.99232 125.10426 1617 ft 151 kts 352°
2026-04-20 01:24 6.00251 125.10262 1401 ft 146 kts 352°
2026-04-20 01:24 6.01568 125.10116 1095 ft 144 kts 355°
2026-04-20 01:24 6.02232 125.10049 924 ft 144 kts 353°
2026-04-20 01:24 6.03214 125.09926 747 ft 142 kts 353°
2026-04-20 01:25 6.04200 125.09812 546 ft 143 kts 353°
2026-04-20 01:25 6.05159 125.09700 478 ft 127 kts 354°
2026-04-20 01:25 6.05852 125.09616 486 ft 73 kts 353°
2026-04-20 01:25 6.06179 125.09576 499 ft 27 kts 353°
2026-04-20 01:26 6.06442 125.09543 502 ft 49 kts 353°
2026-04-20 01:26 6.06778 125.09504 506 ft 46 kts 353°
2026-04-20 01:26 6.07070 125.09468 508 ft 26 kts 353°
2026-04-20 01:26 6.07142 125.09542 510 ft 15 kts 83°
2026-04-20 01:27 6.07199 125.09613 511 ft 15 kts
2026-04-20 01:27 6.07254 125.09567 511 ft 10 kts 287°
2026-04-20 01:27 6.07248 125.09490 510 ft 13 kts 248°
2026-04-20 01:27 6.07168 125.09455 510 ft 14 kts 177°
2026-04-20 01:28 6.06994 125.09477 507 ft 36 kts 173°
2026-04-20 01:28 6.06744 125.09508 506 ft 36 kts 173°
2026-04-20 01:28 6.06498 125.09539 503 ft 36 kts 173°
2026-04-20 01:28 6.06251 125.09568 500 ft 36 kts 173°
2026-04-20 01:29 6.06001 125.09597 487 ft 36 kts 173°
2026-04-20 01:29 6.05827 125.09665 483 ft 21 kts 103°
2026-04-20 01:29 6.05837 125.09814 487 ft 20 kts 82°
2026-04-20 01:29 6.05793 125.09863 483 ft 10 kts 155°
2026-04-20 01:30 6.05729 125.09883 481 ft 8 kts 146°
2026-04-20 01:30 6.05711 125.09936 484 ft 9 kts 115°
2026-04-20 01:30 6.05700 125.09960 483 ft 1 kts 109°
2026-04-20 01:30 6.05695 125.09969 486 ft 1 kts 124°